Terminal Aerodrome Forecast
Issued by NWS Memphis, TN

Home | Current Version | Previous Version | Text Only | Print | Product List | Glossary On
Versions: 1 2 3 4 5 6 7 8 9 10 11 12 13 14 15 16
000
FTUS44 KMEG 310014 AAA
TAFMKL
TAF AMD
KMKL 310014Z 3100/3124 VRB07KT 4SM TSRA SCT030CB BKN050 BKN100
     FM310300 13003KT P6SM SCT100 SCT250
      TEMPO 3109/3112 2SM BR
     FM311600 13003KT P6SM SCT030 SCT250=

USA.gov is the U.S. government's official web portal to all federal, state and local government web resources and services.